ANZ172 NFTF-NCRG

Flight info

Callsign ANZ172
Flight time N/A
Altitude 39000
Route ADNER1P AGEXO B598 GUTMA ANIVA1A
Aircraft A20N/M-SDE2E3FGHIRWXY/LB1

Departure

Time N/A
Airport Fua'amotu International Airport (NFTF)

Arrival

Time 2026-04-24 12:59
Airport Rarotonga International Airport (NCRG)
Time Latitude Longitude Altitude Speed Heading
2026-04-24 12:48 -21.22588 -160.35920 9418 ft 286 kts 87°
2026-04-24 12:48 -21.22420 -160.33802 9063 ft 284 kts 88°
2026-04-24 12:49 -21.22255 -160.31701 8720 ft 282 kts 87°
2026-04-24 12:49 -21.22090 -160.29623 8374 ft 279 kts 87°
2026-04-24 12:49 -21.21929 -160.27585 8037 ft 277 kts 87°
2026-04-24 12:49 -21.21765 -160.25517 7717 ft 273 kts 87°
2026-04-24 12:50 -21.21604 -160.23490 7374 ft 272 kts 87°
2026-04-24 12:50 -21.21445 -160.21487 7055 ft 269 kts 87°
2026-04-24 12:50 -21.21288 -160.19520 6730 ft 267 kts 87°
2026-04-24 12:50 -21.21130 -160.17542 6593 ft 257 kts 87°
2026-04-24 12:51 -21.20982 -160.15708 6515 ft 245 kts 87°
2026-04-24 12:51 -21.20839 -160.13942 6412 ft 232 kts 88°
2026-04-24 12:51 -21.20705 -160.12266 6315 ft 219 kts 88°
2026-04-24 12:51 -21.20578 -160.10703 6232 ft 200 kts 88°
2026-04-24 12:52 -21.20463 -160.09286 6119 ft 182 kts 88°
2026-04-24 12:52 -21.20359 -160.07992 5978 ft 166 kts 88°
2026-04-24 12:52 -21.20262 -160.06790 5663 ft 159 kts 88°
2026-04-24 12:52 -21.20228 -160.05669 5472 ft 142 kts 94°
2026-04-24 12:53 -21.20235 -160.04625 5140 ft 140 kts 94°
2026-04-24 12:53 -21.20239 -160.03589 4801 ft 139 kts 94°
2026-04-24 12:53 -21.20242 -160.02557 4456 ft 137 kts 94°
2026-04-24 12:53 -21.20243 -160.01536 4116 ft 137 kts 94°
2026-04-24 12:54 -21.20244 -160.00518 3767 ft 137 kts 94°
2026-04-24 12:54 -21.20244 -159.99498 3427 ft 136 kts 94°
2026-04-24 12:54 -21.20244 -159.98491 3153 ft 132 kts 94°
2026-04-24 12:54 -21.20246 -159.97504 3000 ft 133 kts 94°
2026-04-24 12:55 -21.20249 -159.96500 2994 ft 134 kts 94°
2026-04-24 12:55 -21.20250 -159.95486 2971 ft 138 kts 94°
2026-04-24 12:55 -21.20251 -159.94463 2754 ft 136 kts 94°
2026-04-24 12:55 -21.20250 -159.93456 2477 ft 136 kts 94°
2026-04-24 12:56 -21.20252 -159.92448 2184 ft 134 kts 95°
2026-04-24 12:56 -21.20238 -159.91446 1841 ft 136 kts 91°
2026-04-24 12:56 -21.20162 -159.90435 1504 ft 136 kts 89°
2026-04-24 12:56 -21.20110 -159.89431 1160 ft 135 kts 94°
2026-04-24 12:57 -21.20127 -159.88449 979 ft 128 kts 99°
2026-04-24 12:57 -21.20174 -159.87469 917 ft 134 kts 98°
2026-04-24 12:57 -21.20247 -159.86489 884 ft 131 kts 95°
2026-04-24 12:57 -21.20225 -159.85512 703 ft 133 kts 93°
2026-04-24 12:58 -21.20238 -159.84858 542 ft 133 kts 96°
2026-04-24 12:58 -21.20273 -159.83871 355 ft 133 kts 91°
2026-04-24 12:58 -21.20202 -159.82890 271 ft 130 kts 89°
2026-04-24 12:58 -21.20257 -159.81584 61 ft 134 kts 92°
2026-04-24 12:59 -21.20258 -159.80692 24 ft 88 kts 90°
2026-04-24 12:59 -21.20256 -159.80321 23 ft 31 kts 90°
2026-04-24 12:59 -21.20257 -159.80162 22 ft 32 kts 89°
2026-04-24 12:59 -21.20259 -159.79951 25 ft 21 kts 92°
2026-04-24 13:00 -21.20255 -159.79857 26 ft 7 kts 74°
2026-04-24 13:00 -21.20234 -159.79829 27 ft 6 kts 32°
2026-04-24 13:00 -21.20186 -159.79823 26 ft 0 kts 360°
2026-04-24 13:00 -21.20169 -159.79823 25 ft 0 kts 358°
2026-04-24 13:01 -21.20168 -159.79823 25 ft 0 kts 358°
2026-04-24 13:01 -21.20166 -159.79823 25 ft 2 kts 358°
2026-04-24 13:02 -21.20142 -159.79825 24 ft 4 kts 352°
2026-04-24 13:02 -21.20119 -159.79852 24 ft 5 kts 304°
2026-04-24 13:02 -21.20104 -159.79873 25 ft 4 kts 311°
2026-04-24 13:02 -21.20086 -159.79887 26 ft 1 kts 341°
2026-04-24 13:03 -21.20075 -159.79884 25 ft 2 kts 10°
2026-04-24 13:03 -21.20068 -159.79883 25 ft 1 kts 13°
2026-04-24 13:03 -21.20066 -159.79882 25 ft 0 kts 14°